[ show orbit diagram ]
Orbital Elements at Epoch 2459000.5 (2020-May-31.0) TDB
Reference: JPL 25 (heliocentric ecliptic J2000)
Element | Value | Uncertainty (1-sigma) | Units |
e | .1426817618091081 | 4.0152e-08 | |
a | 2.545852710876277 | 1.0398e-08 | au |
q | 2.182605960781956 | 1.0321e-07 | au |
i | 2.624291930353809 | 3.5926e-06 | deg |
node | 13.71796279699214 | 9.5097e-05 | deg |
peri | 272.3617458243826 | 9.5938e-05 | deg |
M | 255.8885362230944 | 1.5981e-05 | deg |
tp | 2459429.586044521346 (2021-Aug-03.08604452) | 6.7366e-05 | TDB |
period | 1483.707657388159 4.06 | 9.0899e-06 2.489e-08 | d yr |
n | .2426353993708741 | 1.4865e-09 | deg/d |
Q | 2.909099460970598 | 1.1882e-08 | au |
|
| | Orbit Determination Parameters
Additional Information
|
[ show covariance matrix ]
Physical Parameter Table
Parameter |
Symbol |
Value |
Units |
Sigma |
Reference |
Notes |
absolute magnitude |
H |
14.47 |
|
n/a |
E2021B10 |
|
rotation period |
rot_per |
3.937 |
h |
n/a |
LCDB (Rev. 2020-October); Warner et al., 2009 |
Result based on less than full coverage, so that the period may be wrong by 30 percent or so. Published Reference List: [Waszczak, A.; Chang, C.-K.; Ofeck, E.O.; Laher, F.; et al. (2015) Astron. J. 150, A75.] |
|
14305 (3437 T-3) Discovered 1977-Oct-16 by van Houten, C. J., van Houten-Groeneveld, I., Gehrels, T. at Palomar |
Reference: 20000320/Numbers.arc | Last Updated: 2004-04-19 |
|
[ hide close-approach data ]
Close-Approach Data ...sorted by Date/Time (TDB)
|
Date/Time (TDB) |
Time Uncertainty (days_HH:MM) |
Body |
Nominal Distance (au) |
Minimum Distance (au) |
Maximum Distance (au) |
V-relative (km/s) |
V-infinity (km/s) |
JD (TDB) |
Time Uncertainty (minutes) |
Semi-major axis (km) |
Semi-minor axis (km) |
range-LOV angle (deg) |
N-sigma |
BP |
Orbit Ref. |
Reference |
Modified |
2062-May-06 16:45 |
00:04 |
Vesta |
0.043261623903808 |
0.0432537501798981 |
0.0432694985771733 |
2.93483970319538 |
2.93483876604895 |
2474316.198156439 |
4.21103321006357 |
502.945882414103 |
30.5871268479824 |
-39.3150984376117 |
133382.81633939 |
T |
25 |
CATAB v2.0f-lin.ifort 2020-Nov-13 02:40:51 |
2020-Nov-13 02:40 |
2131-Apr-08 10:49 |
00:10 |
Vesta |
0.035027450762926 |
0.0350231813447327 |
0.0350317354434415 |
3.02739585890517 |
3.02739473684298 |
2499488.950968168 |
9.96988315836781 |
1176.79771319041 |
31.8114387128141 |
-79.767101920658 |
160920.059679208 |
T |
25 |
CATAB v2.0f-lin.ifort 2020-Nov-13 02:40:51 |
2020-Nov-13 02:40 |
|
|
|